This is the latest recevied weather packets stored in our database for station/object N1ORT. If no packets are shown the sender has not sent any weather packets the latest 10 day(s).
| Time | Temp. | Humidity | Pressure | Rain* | Wind** | Luminosity | Snow |
|---|---|---|---|---|---|---|---|
| 1777809214 | 5.56° C | 95% | 1005.2 hPa | 0 mm | - | 72 W/m² | - |
| 1777808912 | 5.56° C | 95% | 1005.1 hPa | 0 mm | - | 69 W/m² | - |
| 1777808608 | 5° C | 95% | 1005.2 hPa | 0 mm | - | 58 W/m² | - |
| 1777808305 | 5° C | 96% | 1005.3 hPa | 0 mm | - | 33 W/m² | - |
| 1777808004 | 5° C | 95% | 1005.1 hPa | 0 mm | - | 42 W/m² | - |
| 1777807700 | 5° C | 96% | 1005.5 hPa | 0 mm | - | 35 W/m² | - |
| 1777807399 | 5° C | 96% | 1005.4 hPa | 0 mm | - | 26 W/m² | - |
| 1777807099 | 5° C | 96% | 1005.3 hPa | 0 mm | - | 16 W/m² | - |
| 1777806797 | 5° C | 96% | 1005.3 hPa | 0 mm | - | 17 W/m² | - |
| 1777806492 | 5° C | 96% | 1005.2 hPa | 0 mm | - | 21 W/m² | - |
| 1777806189 | 5° C | 96% | 1005.2 hPa | 0 mm | - | 38 W/m² | - |
| 1777805885 | 5° C | 96% | 1004.9 hPa | 0 mm | - | 28 W/m² | - |
| 1777805583 | 5° C | 96% | 1005.3 hPa | 0 mm | - | 26 W/m² | - |
| 1777805280 | 5° C | 96% | 1005.2 hPa | 0 mm | - | 25 W/m² | - |
| 1777804978 | 5° C | 96% | 1005.1 hPa | 0 mm | - | 16 W/m² | - |
| 1777804675 | 5° C | 96% | 1005.4 hPa | 0 mm | - | 18 W/m² | - |
| 1777804373 | 5° C | 96% | 1005.3 hPa | 0 mm | - | 12 W/m² | - |
| 1777804070 | 5° C | 96% | 1005.5 hPa | 0 mm | - | 11 W/m² | - |
| 1777803766 | 5° C | 96% | 1005.2 hPa | 0 mm | - | 14 W/m² | - |
| 1777803462 | 5° C | 96% | 1005.1 hPa | 0 mm | - | 7 W/m² | - |
| 1777803160 | 5° C | 96% | 1005.2 hPa | 0 mm | - | 6 W/m² | - |
| 1777802857 | 5° C | 96% | 1005.2 hPa | 0 mm | - | 9 W/m² | - |
| 1777802555 | 5° C | 97% | 1005 hPa | 0 mm | - | 6 W/m² | - |
| 1777802252 | 5° C | 97% | 1005.1 hPa | 0 mm | - | 5 W/m² | - |
| 1777801951 | 5° C | 97% | 1005.1 hPa | 0 mm | - | 4 W/m² | - |
* Rain latest hour (hover to see other rain measurements)
** Current wind speed in m/s (hover to see current wind gust speed)